Flag for U.S.A. Weather past 2 weeks in St. Louis, Missouri, U.S.A.

Now
9 °F

Passing clouds.


Feels Like: -4 °F
Forecast: 4 / 15 °F
Wind: 9 mph from North

Location: Lambert-St. Louis International Airport

Current Time: Feb 27, 2015 at 12:43:15 AM

Latest Report: Feb 26, 2015 at 11:51 PM


Visibility: 10 mi

Pressure: 30.60 "Hg

Humidity: 61%

Dew point: -2 °F

Location of St. LouisLocation

Historic Weather in St. Louis — Graph

°F

St. Louis temperature yesterday

Maximum temperature yesterday: 32 °F (at 12:51 AM)
Minimum temperature yesterday: 9 °F (at 11:51 PM)
Average temperature yesterday: 22 °F

Past Weeks' High & Low Weather Summary

 TemperatureHumidityPressure
High44 °F (Feb 25, 1:51 PM)89% (Feb 21, 12:51 AM)30.85 "Hg (Feb 21, 12:51 AM)
Low1 °F (Feb 19, 5:51 AM)24% (Feb 14, 2:51 PM)29.84 "Hg (Feb 25, 3:51 PM)
Average22 °F59%30.28 "Hg
* Reported Feb 11 11:51 PM — Feb 26 11:51 PM, St. Louis, Weather by CustomWeather, © 2015

Note: Actual official high and low records may vary slightly from our data, if they occured in-between our weather recording intervals... More about our weather records

Advertising

St. Louis weather history for previous 24 hours

 ConditionsComfort  
Time TempWeatherWind HumidityBarometerVisibility
11:51 PM
Thu, Feb 26
9 °FPassing clouds.9 mph61%30.60 "Hg10 mi
10:51 PM11 °FClear.8 mph59%30.58 "Hg10 mi
9:51 PM12 °FClear.6 mph58%30.57 "Hg10 mi
8:51 PM13 °FPassing clouds.9 mph59%30.54 "Hg10 mi
7:51 PM15 °FPassing clouds.16 mph56%30.52 "Hg10 mi
6:51 PM18 °FPassing clouds.15 mph54%30.48 "Hg10 mi
5:51 PM20 °FPassing clouds.14 mph60%30.44 "Hg10 mi
4:51 PM21 °FLight snow. Overcast.13 mph62%30.40 "Hg10 mi
3:51 PM22 °FPartly sunny.17 mph62%30.37 "Hg8 mi
2:51 PM23 °FLight snow. Mostly cloudy.18 mph65%30.34 "Hg6 mi
1:51 PM23 °FLight snow. More clouds than sun.13 mph72%30.32 "Hg3 mi
12:51 PM23 °FLight snow. Overcast.13 mph65%30.30 "Hg8 mi
11:51 AM22 °FLight snow. Overcast.14 mph72%30.29 "Hg3 mi
10:51 AM22 °FLight snow. Cloudy.16 mph75%30.28 "Hg2 mi
9:51 AM21 °FLight snow. Mostly cloudy.14 mph74%30.26 "Hg1 mi
8:51 AM21 °FLight snow. Cloudy.15 mph78%30.23 "Hg2 mi
7:55 AM21 °FLight snow. Mostly cloudy.17 mph80%30.16 "Hg1 mi
6:51 AM23 °FLight snow. Low clouds.18 mph81%30.13 "Hg5 mi
5:51 AM26 °FLight snow. Mostly cloudy.15 mph81%30.09 "Hg2 mi
5:03 AM27 °FLight snow. Low clouds.12 mph80%30.01 "Hg2 mi
4:56 AM28 °FLight snow. Overcast.14 mph80%30.00 "Hg3 mi
4:01 AM28 °FLight snow. Overcast.12 mph80%29.97 "Hg8 mi
2:51 AM29 °FLight snow. Overcast.12 mph82%29.96 "Hg2 mi
1:51 AM30 °FLight snow. Mostly cloudy.9 mph82%29.96 "Hg4 mi
12:51 AM32 °FLight snow. Overcast.7 mph73%29.93 "Hg3 mi
Weather by CustomWeather, © 2015

See weather overviewHow to use our weather pages